Year,Month,Day,Hour,Minute,Value (Times are PST for temperature in C)
2018,10,11,08,09,4.70
2018,10,11,08,10,4.80
2018,10,11,08,11,4.80
2018,10,11,08,12,4.90
2018,10,11,08,13,4.90
2018,10,11,08,14,5.00
2018,10,11,08,15,5.10
2018,10,11,08,16,5.10
2018,10,11,08,17,5.20
2018,10,11,08,18,5.30
2018,10,11,08,19,5.30
2018,10,11,08,20,5.40
2018,10,11,08,21,5.50
2018,10,11,08,22,5.60
2018,10,11,08,23,5.70
2018,10,11,08,24,5.80
2018,10,11,08,25,5.90
2018,10,11,08,26,5.90
2018,10,11,08,27,6.00
2018,10,11,08,28,6.00
2018,10,11,08,29,6.10
2018,10,11,08,30,6.10
2018,10,11,08,31,6.10
2018,10,11,08,32,6.20
2018,10,11,08,33,6.20
2018,10,11,08,34,6.20
2018,10,11,08,35,6.30
2018,10,11,08,36,6.40
2018,10,11,08,37,6.50
2018,10,11,08,38,6.60
2018,10,11,08,39,6.60
2018,10,11,08,40,6.70
2018,10,11,08,41,6.70
2018,10,11,08,42,6.80
2018,10,11,08,43,6.80
2018,10,11,08,44,6.80
2018,10,11,08,45,6.90
2018,10,11,08,46,6.90
2018,10,11,08,47,7.00
2018,10,11,08,48,7.00
2018,10,11,08,49,7.00
2018,10,11,08,50,7.10
2018,10,11,08,51,7.10
2018,10,11,08,52,7.10
2018,10,11,08,53,7.20
2018,10,11,08,54,7.20
2018,10,11,08,55,7.20
2018,10,11,08,56,7.30
2018,10,11,08,57,7.30
2018,10,11,08,58,7.30
2018,10,11,08,59,7.30
2018,10,11,09,00,7.30
2018,10,11,09,01,7.40
2018,10,11,09,02,7.40
2018,10,11,09,03,7.40
2018,10,11,09,04,7.50
2018,10,11,09,05,7.50
2018,10,11,09,06,7.60
2018,10,11,09,07,7.70
2018,10,11,09,08,7.80
2018,10,11,09,09,7.90
2018,10,11,09,10,8.00
2018,10,11,09,11,8.00
2018,10,11,09,12,8.20
2018,10,11,09,13,8.20
2018,10,11,09,14,8.30
2018,10,11,09,15,8.40
2018,10,11,09,16,8.50
2018,10,11,09,17,8.60
2018,10,11,09,18,8.60
2018,10,11,09,19,8.70
2018,10,11,09,20,8.80
2018,10,11,09,21,8.80
2018,10,11,09,22,8.90
2018,10,11,09,23,8.90
2018,10,11,09,24,9.00
2018,10,11,09,25,9.10
2018,10,11,09,26,9.10
2018,10,11,09,27,9.20
2018,10,11,09,28,9.20
2018,10,11,09,29,9.20
2018,10,11,09,30,9.30
2018,10,11,09,31,9.40
2018,10,11,09,32,9.50
2018,10,11,09,33,9.50
2018,10,11,09,34,9.70
2018,10,11,09,35,9.70
2018,10,11,09,36,9.80
2018,10,11,09,37,9.90
2018,10,11,09,38,10.00
2018,10,11,09,39,10.10
2018,10,11,09,40,10.20
2018,10,11,09,41,10.20
2018,10,11,09,42,10.30
2018,10,11,09,43,10.40
2018,10,11,09,44,10.40
2018,10,11,09,45,10.50
2018,10,11,09,46,10.60
2018,10,11,09,47,10.60
2018,10,11,09,48,10.70
2018,10,11,09,49,10.80
2018,10,11,09,50,10.90
2018,10,11,09,51,10.90
2018,10,11,09,52,11.00
2018,10,11,09,53,11.10
2018,10,11,09,54,11.20
2018,10,11,09,55,11.20
2018,10,11,09,56,11.30
2018,10,11,09,57,11.40
2018,10,11,09,58,11.40
2018,10,11,09,59,11.50
2018,10,11,10,00,11.60
2018,10,11,10,01,11.60
2018,10,11,10,02,11.60
2018,10,11,10,03,11.60
2018,10,11,10,04,11.60
2018,10,11,10,05,11.60
2018,10,11,10,06,11.70
2018,10,11,10,07,11.70
2018,10,11,10,08,11.80
2018,10,11,10,09,11.80
2018,10,11,10,10,11.80
2018,10,11,10,11,11.90
2018,10,11,10,12,11.90
2018,10,11,10,13,12.00
2018,10,11,10,14,12.00
2018,10,11,10,15,12.10
2018,10,11,10,16,12.20
2018,10,11,10,17,12.20
2018,10,11,10,18,12.30
2018,10,11,10,19,12.30
2018,10,11,10,20,12.40
2018,10,11,10,21,12.50
2018,10,11,10,22,12.50
2018,10,11,10,23,12.60
2018,10,11,10,24,12.60
2018,10,11,10,25,12.60
2018,10,11,10,26,12.60
2018,10,11,10,27,12.60
2018,10,11,10,28,12.60
2018,10,11,10,29,12.70
2018,10,11,10,30,12.70
2018,10,11,10,31,12.70
2018,10,11,10,32,12.70
2018,10,11,10,33,12.80
2018,10,11,10,34,12.80
2018,10,11,10,35,12.80
2018,10,11,10,36,12.80
2018,10,11,10,37,12.80
2018,10,11,10,38,12.80
2018,10,11,10,39,12.80
2018,10,11,10,40,12.90
2018,10,11,10,41,12.90
2018,10,11,10,42,12.90
2018,10,11,10,43,13.00
2018,10,11,10,44,12.90
2018,10,11,10,45,12.90
2018,10,11,10,46,12.90
2018,10,11,10,47,12.90
2018,10,11,10,48,12.90
2018,10,11,10,49,12.90
2018,10,11,10,50,12.90
2018,10,11,10,51,12.90
2018,10,11,10,52,12.90
2018,10,11,10,53,12.90
2018,10,11,10,54,12.90
2018,10,11,10,55,13.00
2018,10,11,10,56,13.00
2018,10,11,10,57,13.00
2018,10,11,10,58,13.10
2018,10,11,10,59,13.10
2018,10,11,11,00,13.10
2018,10,11,11,01,13.10
2018,10,11,11,02,13.10
2018,10,11,11,03,13.10
2018,10,11,11,04,13.10
2018,10,11,11,05,13.10
2018,10,11,11,06,13.10
2018,10,11,11,07,13.10
2018,10,11,11,08,13.10
2018,10,11,11,09,13.10
2018,10,11,11,10,13.10
2018,10,11,11,11,13.20
2018,10,11,11,12,13.30
2018,10,11,11,13,13.30
2018,10,11,11,14,13.30
2018,10,11,11,15,13.30
2018,10,11,11,16,13.30
2018,10,11,11,17,13.30
2018,10,11,11,18,13.30
2018,10,11,11,19,13.20
2018,10,11,11,20,13.20
2018,10,11,11,21,13.30
2018,10,11,11,22,13.30
2018,10,11,11,23,13.30
2018,10,11,11,24,13.30
2018,10,11,11,25,13.30
2018,10,11,11,26,13.30
2018,10,11,11,27,13.30
2018,10,11,11,28,13.30
2018,10,11,11,29,13.30
2018,10,11,11,30,13.30
2018,10,11,11,31,13.30
2018,10,11,11,32,13.30
2018,10,11,11,33,13.30
2018,10,11,11,34,13.30
2018,10,11,11,35,13.30
2018,10,11,11,36,13.30
2018,10,11,11,37,13.30
2018,10,11,11,38,13.30
2018,10,11,11,39,13.30
2018,10,11,11,40,13.30
2018,10,11,11,41,13.30
2018,10,11,11,42,13.30
2018,10,11,11,43,13.30
2018,10,11,11,44,13.30
2018,10,11,11,45,13.30
2018,10,11,11,46,13.30
2018,10,11,11,47,13.40
2018,10,11,11,48,13.40
2018,10,11,11,49,13.50
2018,10,11,11,50,13.50
2018,10,11,11,51,13.50
2018,10,11,11,52,13.50
2018,10,11,11,53,13.50
2018,10,11,11,54,13.50
2018,10,11,11,55,13.60
2018,10,11,11,56,13.60
2018,10,11,11,57,13.70
2018,10,11,11,58,13.70
2018,10,11,11,59,13.80
2018,10,11,12,00,13.80
2018,10,11,12,01,13.80
2018,10,11,12,02,13.70
2018,10,11,12,03,13.80
2018,10,11,12,04,13.80
2018,10,11,12,05,13.90
2018,10,11,12,06,13.90
2018,10,11,12,07,13.90
2018,10,11,12,08,14.00
2018,10,11,12,09,14.00
2018,10,11,12,10,14.10
2018,10,11,12,11,14.00
2018,10,11,12,12,14.00
2018,10,11,12,13,13.90
2018,10,11,12,14,13.90
2018,10,11,12,15,13.90
2018,10,11,12,16,13.90
2018,10,11,12,17,13.90
2018,10,11,12,18,13.90
2018,10,11,12,19,13.80
2018,10,11,12,20,13.70
2018,10,11,12,21,13.70
2018,10,11,12,22,13.70
2018,10,11,12,23,13.70
2018,10,11,12,24,13.70
2018,10,11,12,25,13.80
2018,10,11,12,26,13.80
2018,10,11,12,27,13.80
2018,10,11,12,28,13.80
2018,10,11,12,29,13.80
2018,10,11,12,30,13.90
2018,10,11,12,31,13.90
2018,10,11,12,32,13.90
2018,10,11,12,33,13.90
2018,10,11,12,34,13.90
2018,10,11,12,35,14.00
2018,10,11,12,36,14.00
2018,10,11,12,37,14.00
2018,10,11,12,38,14.00
2018,10,11,12,39,14.00
2018,10,11,12,40,14.10
2018,10,11,12,41,14.10
2018,10,11,12,42,14.10
2018,10,11,12,43,14.00
2018,10,11,12,44,14.00
2018,10,11,12,45,14.00
2018,10,11,12,46,14.00
2018,10,11,12,47,14.00
2018,10,11,12,48,14.00
2018,10,11,12,49,14.00
2018,10,11,12,50,14.10
2018,10,11,12,51,14.10
2018,10,11,12,52,14.20
2018,10,11,12,53,14.20
2018,10,11,12,54,14.30
2018,10,11,12,55,14.40
2018,10,11,12,56,14.40
2018,10,11,12,57,14.40
2018,10,11,12,58,14.40
2018,10,11,12,59,14.40
2018,10,11,13,00,14.40
2018,10,11,13,01,14.40
2018,10,11,13,02,14.40
2018,10,11,13,03,14.40
2018,10,11,13,04,14.40
2018,10,11,13,05,14.30
2018,10,11,13,06,14.40
2018,10,11,13,07,14.40
2018,10,11,13,08,14.50
2018,10,11,13,09,14.50
2018,10,11,13,10,14.60
2018,10,11,13,11,14.60
2018,10,11,13,12,14.60
2018,10,11,13,13,14.60
2018,10,11,13,14,14.60
2018,10,11,13,15,14.50
2018,10,11,13,16,14.60
2018,10,11,13,17,14.60
2018,10,11,13,18,14.60
2018,10,11,13,19,14.70
2018,10,11,13,20,14.80
2018,10,11,13,21,14.80
2018,10,11,13,22,14.80
2018,10,11,13,23,14.80
2018,10,11,13,24,14.90
2018,10,11,13,25,15.00
2018,10,11,13,26,15.00
2018,10,11,13,27,15.00
2018,10,11,13,28,15.10
2018,10,11,13,29,15.00
2018,10,11,13,30,15.00
2018,10,11,13,31,15.00
2018,10,11,13,32,15.10
2018,10,11,13,33,15.10
2018,10,11,13,34,15.20
2018,10,11,13,35,15.10
2018,10,11,13,36,15.10
2018,10,11,13,37,15.10
2018,10,11,13,38,15.10
2018,10,11,13,39,15.10
2018,10,11,13,40,15.10
2018,10,11,13,41,15.10
2018,10,11,13,42,15.00
2018,10,11,13,43,14.90
2018,10,11,13,44,14.80
2018,10,11,13,45,14.80
2018,10,11,13,46,14.80
2018,10,11,13,47,14.80
2018,10,11,13,48,14.90
2018,10,11,13,49,14.90
2018,10,11,13,50,15.00
2018,10,11,13,51,15.00
2018,10,11,13,52,15.00
2018,10,11,13,53,15.10
2018,10,11,13,54,15.10
2018,10,11,13,55,15.00
2018,10,11,13,56,15.00
2018,10,11,13,57,14.90
2018,10,11,13,58,14.90
2018,10,11,13,59,15.00
2018,10,11,14,00,15.00
2018,10,11,14,01,15.00
2018,10,11,14,02,15.10
2018,10,11,14,03,15.20
2018,10,11,14,04,15.20
2018,10,11,14,05,15.20
2018,10,11,14,06,15.20
2018,10,11,14,07,15.20
2018,10,11,14,08,15.20
2018,10,11,14,09,15.10
2018,10,11,14,10,15.10
2018,10,11,14,11,15.10
2018,10,11,14,12,15.10
2018,10,11,14,13,15.10
2018,10,11,14,14,15.10
2018,10,11,14,15,15.00
2018,10,11,14,16,15.00
2018,10,11,14,17,15.00
2018,10,11,14,18,15.10
2018,10,11,14,19,15.10
2018,10,11,14,20,15.20
2018,10,11,14,21,15.30
2018,10,11,14,22,15.40
2018,10,11,14,23,15.40
2018,10,11,14,24,15.50
2018,10,11,14,25,15.60
2018,10,11,14,26,15.60
2018,10,11,14,27,15.70
2018,10,11,14,28,15.80
2018,10,11,14,29,15.80
2018,10,11,14,30,15.90
2018,10,11,14,31,16.00
2018,10,11,14,32,16.10
2018,10,11,14,33,16.10
2018,10,11,14,34,16.20
2018,10,11,14,35,16.30
2018,10,11,14,36,16.30
2018,10,11,14,37,16.30
2018,10,11,14,38,16.20
2018,10,11,14,39,16.20
2018,10,11,14,40,16.20
2018,10,11,14,41,16.20
2018,10,11,14,42,16.30
2018,10,11,14,43,16.30
2018,10,11,14,44,16.30
2018,10,11,14,45,16.30
2018,10,11,14,46,16.20
2018,10,11,14,47,16.20
2018,10,11,14,48,16.20
2018,10,11,14,49,16.20
2018,10,11,14,50,16.20
2018,10,11,14,51,16.10
2018,10,11,14,52,16.10
2018,10,11,14,53,16.10
2018,10,11,14,54,16.20
2018,10,11,14,55,16.20
2018,10,11,14,56,16.20
2018,10,11,14,57,16.30
2018,10,11,14,58,16.40
2018,10,11,14,59,16.40
2018,10,11,15,00,16.40
2018,10,11,15,01,16.60
2018,10,11,15,02,16.60
2018,10,11,15,03,16.70
2018,10,11,15,04,16.60
2018,10,11,15,05,16.50
2018,10,11,15,06,16.30
2018,10,11,15,07,16.20
2018,10,11,15,08,16.10
2018,10,11,15,09,16.10
2018,10,11,15,10,16.10
2018,10,11,15,11,16.10
2018,10,11,15,12,16.10
2018,10,11,15,13,16.10
2018,10,11,15,14,16.10
2018,10,11,15,15,16.10
2018,10,11,15,16,16.10
2018,10,11,15,17,16.00
2018,10,11,15,18,15.90
2018,10,11,15,19,15.90
2018,10,11,15,20,15.80
2018,10,11,15,21,15.80
2018,10,11,15,22,15.80
2018,10,11,15,23,15.80
2018,10,11,15,24,15.80
2018,10,11,15,25,15.80
2018,10,11,15,26,15.80
2018,10,11,15,27,15.80
2018,10,11,15,28,15.80
2018,10,11,15,29,15.70
2018,10,11,15,30,15.70
2018,10,11,15,31,15.70
2018,10,11,15,32,15.60
2018,10,11,15,33,15.60
2018,10,11,15,34,15.50
2018,10,11,15,35,15.40
2018,10,11,15,36,15.40
2018,10,11,15,37,15.30
2018,10,11,15,38,15.30
2018,10,11,15,39,15.30
2018,10,11,15,40,15.30
2018,10,11,15,41,15.30
2018,10,11,15,42,15.30
2018,10,11,15,43,15.30
2018,10,11,15,44,15.30
2018,10,11,15,45,15.40
2018,10,11,15,46,15.40
2018,10,11,15,47,15.40
2018,10,11,15,48,15.40
2018,10,11,15,49,15.40
2018,10,11,15,50,15.50
2018,10,11,15,51,15.50
2018,10,11,15,52,15.50
2018,10,11,15,53,15.50
2018,10,11,15,54,15.50
2018,10,11,15,55,15.50
2018,10,11,15,56,15.40
2018,10,11,15,57,15.40
2018,10,11,15,58,15.40
2018,10,11,15,59,15.30
2018,10,11,16,00,15.20
2018,10,11,16,01,15.20
2018,10,11,16,02,15.10
2018,10,11,16,03,15.10
2018,10,11,16,04,15.10
2018,10,11,16,05,15.10
2018,10,11,16,06,15.20
2018,10,11,16,07,15.20
2018,10,11,16,08,15.20
2018,10,11,16,09,15.20
2018,10,11,16,10,15.30
2018,10,11,16,11,15.30
2018,10,11,16,12,15.30
2018,10,11,16,13,15.20
2018,10,11,16,14,15.20
2018,10,11,16,15,15.20
2018,10,11,16,16,15.20
2018,10,11,16,17,15.20
2018,10,11,16,18,15.20
2018,10,11,16,19,15.10
2018,10,11,16,20,15.10
2018,10,11,16,21,15.10
2018,10,11,16,22,15.10
2018,10,11,16,23,15.10
2018,10,11,16,24,15.10
2018,10,11,16,25,15.10
2018,10,11,16,26,15.10
2018,10,11,16,27,15.00
2018,10,11,16,28,15.00
2018,10,11,16,29,14.90
2018,10,11,16,30,14.90
2018,10,11,16,31,14.80
2018,10,11,16,32,14.80
2018,10,11,16,33,14.80
2018,10,11,16,34,14.80
2018,10,11,16,35,14.80
2018,10,11,16,36,14.80
2018,10,11,16,37,14.90
2018,10,11,16,38,14.80
2018,10,11,16,39,14.80
2018,10,11,16,40,14.80
2018,10,11,16,41,14.70
2018,10,11,16,42,14.70
2018,10,11,16,43,14.60
2018,10,11,16,44,14.60
2018,10,11,16,45,14.60
2018,10,11,16,46,14.50
2018,10,11,16,47,14.50
2018,10,11,16,48,14.50
2018,10,11,16,49,14.50
2018,10,11,16,50,14.50
2018,10,11,16,51,14.50
2018,10,11,16,52,14.50
2018,10,11,16,53,14.50
2018,10,11,16,54,14.50
2018,10,11,16,55,14.50
2018,10,11,16,56,14.50
2018,10,11,16,57,14.60
2018,10,11,16,58,14.60
2018,10,11,16,59,14.60
2018,10,11,17,00,14.60
2018,10,11,17,01,14.60
2018,10,11,17,02,14.60
2018,10,11,17,03,14.60
2018,10,11,17,04,14.60
2018,10,11,17,05,14.50
2018,10,11,17,06,14.50
2018,10,11,17,07,14.50
2018,10,11,17,08,14.50
2018,10,11,17,09,14.50
2018,10,11,17,10,14.50
2018,10,11,17,11,14.50
2018,10,11,17,12,14.50
2018,10,11,17,13,14.50
2018,10,11,17,14,14.50
2018,10,11,17,15,14.50
2018,10,11,17,16,14.50
2018,10,11,17,17,14.50
2018,10,11,17,18,14.50
2018,10,11,17,19,14.50
2018,10,11,17,20,14.50
2018,10,11,17,21,14.50
2018,10,11,17,22,14.20
2018,10,11,17,23,13.90
2018,10,11,17,24,13.90
2018,10,11,17,25,13.90
2018,10,11,17,26,13.90
2018,10,11,17,27,13.90
2018,10,11,17,28,13.90
2018,10,11,17,29,13.90
2018,10,11,17,30,13.90
2018,10,11,17,31,13.90
2018,10,11,17,32,13.90
2018,10,11,17,33,13.90
